User: anonymous   Login
Location: Unspecified
(0.0000°N, 0.0000°E)
Time: 03:21:13
(UTC+00:00)
Language:

BUGSAT 1 - Orbit

View from above orbital plane
View from above orbital plane
View from above satellite
View from above satellite

Ground track
Ground track

The orbit data is extracted from the following two-line orbital elements,

1 40014U 14033E   18202.83778837  .00000220  00000-0  25497-4 0  9999
2 40014  97.9776 138.8289 0033128  80.8609 279.6376 14.95072802222917
Epoch (UTC): 21 July 2018 20:06:24
Eccentricity: 0.0033128
inclination: 97.9776°
perigee height: 559 km
apogee height: 605 km
right ascension of ascending node: 138.8289°
argument of perigee: 80.8609°
revolutions per day: 14.95072802
mean anomaly at epoch: 279.6376°
orbit number at epoch: 22291

The dashed part of the orbit path shows where the satellite is in the earth's shadow,  

DLR